STARLINK-32380

Last updated on Mon Oct 14 2024 00:02:03 GMT+0000 (Coordinated Universal Time)

1 61069U 24164V 24287.58334491 .00071728 00000+0 17888-2 0 9997 2 61069 53.1594 318.7239 0001421 76.7395 16.7942 15.39578069 6018
UTC large
Height (km)
Speed (km/s)
/
Latitude / Longitude
Inclination (degrees)
Orbital Period (minutes)
Azimuth
Elevation
Range (km)
Doppler Factor

Next 0 passes for location: London (51.5072 / 0.1276)

Sorry there are no passes over London.